Tracking 19247 objects as of 22-Sep-2018
HD Live streaming from Space Station
objects crossing your sky now

TNS 0-2

Track TNS 0-2 now!
10-day predictions


NORAD ID: 42914
Int'l Code: 1998-067ND
Perigee: 372.3 km
Apogee: 376.8 km
Inclination: 51.6 °
Period: 91.9 minutes
Semi major axis: 6745 km
RCS: Unknown
Launch date: November 20, 1998
Source: United States (US)
Launch site: TYURATAM MISSILE AND SPACE COMPLEX (TTMTR)
aabbcc
Your satellite tracking list
Your tracking list is empty




NASA's NSSDC Master Catalog

Two Line Element Set (TLE):
1 42914U 98067ND  18263.61325305 +.00013937 +00000-0 +13320-3 0  9990
2 42914 051.6340 242.5473 0003362 194.8905 165.1992 15.67030576062290
Source of the keplerian elements: AMSAT